TimeEST,TemperatureF,Dew PointF,Humidity,Sea Level PressureIn,VisibilityMPH,Wind Direction,Wind SpeedMPH,Gust SpeedMPH,PrecipitationIn,Events,Conditions,WindDirDegrees,DateUTC
12:53 AM,66.9,66.0,97,30.20,10.0,Calm,Calm,-,N/A,,Unknown,0,2013-01-06 05:53:00
1:53 AM,66.9,64.9,93,30.18,10.0,ENE,3.5,-,N/A,,Clear,60,2013-01-06 06:53:00
2:53 AM,68.0,66.0,93,30.16,10.0,Calm,Calm,-,0.00,Rain,Light Rain,0,2013-01-06 07:53:00
3:10 AM,71.6,68.0,88,30.16,10.0,SSE,5.8,-,0.08,Rain,Heavy Rain,160,2013-01-06 08:10:00
3:17 AM,71.6,69.8,94,30.16,10.0,SE,4.6,-,0.08,Rain,Light Rain,130,2013-01-06 08:17:00
3:53 AM,71.1,69.1,93,30.15,10.0,East,5.8,-,0.09,,Overcast,90,2013-01-06 08:53:00
5:53 AM,71.1,70.0,96,30.14,10.0,East,5.8,-,0.00,,Overcast,90,2013-01-06 10:53:00
6:53 AM,72.0,71.1,97,30.16,10.0,Calm,Calm,-,N/A,,Overcast,0,2013-01-06 11:53:00
7:53 AM,73.0,71.1,93,30.17,10.0,SE,5.8,-,N/A,,Mostly Cloudy,130,2013-01-06 12:53:00
8:53 AM,75.9,72.0,87,30.18,10.0,ESE,6.9,-,N/A,,Clear,120,2013-01-06 13:53:00
9:40 AM,77.0,69.8,78,30.19,10.0,SE,11.5,-,N/A,,Mostly Cloudy,140,2013-01-06 14:40:00
9:53 AM,78.1,70.0,76,30.19,10.0,SE,15.0,-,N/A,,Mostly Cloudy,130,2013-01-06 14:53:00
10:05 AM,78.8,69.8,74,30.18,10.0,SE,13.8,-,N/A,,Scattered Clouds,140,2013-01-06 15:05:00
10:53 AM,79.0,69.1,72,30.17,10.0,SE,15.0,-,N/A,,Mostly Cloudy,130,2013-01-06 15:53:00
11:15 AM,78.8,68.0,69,30.16,10.0,ESE,12.7,-,N/A,,Mostly Cloudy,120,2013-01-06 16:15:00
11:24 AM,78.8,69.8,74,30.16,10.0,ESE,11.5,-,N/A,,Mostly Cloudy,120,2013-01-06 16:24:00
11:53 AM,78.1,69.1,74,30.15,10.0,ESE,12.7,-,N/A,,Mostly Cloudy,120,2013-01-06 16:53:00
12:53 PM,82.0,70.0,67,30.12,10.0,SE,11.5,-,N/A,,Mostly Cloudy,140,2013-01-06 17:53:00
1:53 PM,80.1,69.1,69,30.10,10.0,SE,12.7,-,N/A,,Mostly Cloudy,130,2013-01-06 18:53:00
2:03 PM,80.6,69.8,70,30.10,10.0,SE,11.5,-,N/A,,Mostly Cloudy,130,2013-01-06 19:03:00
2:26 PM,78.8,68.0,69,30.09,10.0,SSE,10.4,-,N/A,,Mostly Cloudy,150,2013-01-06 19:26:00
2:53 PM,80.1,69.1,69,30.09,10.0,SE,13.8,-,N/A,,Scattered Clouds,140,2013-01-06 19:53:00
3:53 PM,79.0,68.0,69,30.09,10.0,SE,11.5,-,N/A,,Partly Cloudy,130,2013-01-06 20:53:00
4:53 PM,78.1,68.0,71,30.09,10.0,SE,11.5,-,N/A,,Partly Cloudy,140,2013-01-06 21:53:00
5:53 PM,75.9,68.0,76,30.09,10.0,SE,8.1,-,N/A,,Clear,140,2013-01-06 22:53:00
6:53 PM,75.0,68.0,79,30.11,10.0,SE,3.5,-,N/A,,Clear,140,2013-01-06 23:53:00
7:53 PM,73.9,69.1,85,30.13,10.0,Calm,Calm,-,N/A,,Clear,0,2013-01-07 00:53:00
8:53 PM,72.0,68.0,87,30.13,10.0,Calm,Calm,-,N/A,,Clear,0,2013-01-07 01:53:00
9:53 PM,70.0,66.9,90,30.14,10.0,Calm,Calm,-,N/A,,Clear,0,2013-01-07 02:53:00
10:53 PM,70.0,66.9,90,30.14,10.0,Calm,Calm,-,N/A,,Clear,0,2013-01-07 03:53:00
11:53 PM,69.1,66.9,93,30.14,10.0,Calm,Calm,-,N/A,,Clear,0,2013-01-07 04:53:00